Regional Weather Roundup
Issued by NWS

Home | Current Version | Previous Version | Text Only | Print | Product List | Glossary Off
Versions: 1 2 3 4 5 6 7 8 9 10 11 12 13 14 15 16 17 18 19 20 21 22 23 24 25 26 27 28 29 30 31 32 33 34 35 36 37 38 39 40 41 42 43 44 45 46 47 48 49 50

000
ASUS43 KBIS 231320
RWRND

NORTH DAKOTA REGIONAL WEATHER ROUNDUP
NATIONAL WEATHER SERVICE BISMARCK ND
800 AM CDT WED APR 23 2014

NOTE: "FAIR" INDICATES FEW OR NO CLOUDS BELOW 12,000 FEET WITH NO
SIGNIFICANT WEATHER AND/OR OBSTRUCTIONS TO VISIBILITY.


NDZ001>003-009>011-017-231400-
NORTHWEST NORTH DAKOTA

CITY           SKY/WX    TMP DP  RH WIND       PRES   REMARKS
WILLISTON      PTSUNNY   51  38  60 SE24G36   29.43S
MINOT          RAIN      49  43  80 SE26G39   29.61F
MINOT AFB      DRIZZLE   44  44  99 E14       29.62F
$$

NDZ018>021-031>035-040>046-231400-
SOUTHWEST NORTH DAKOTA

CITY           SKY/WX    TMP DP  RH WIND       PRES   REMARKS
BISMARCK       CLOUDY    50  38  63 E23G31    29.63R
DICKINSON      PTSUNNY   47  35  63 E22G29    29.43R
GARRISON         N/A     47  32  56 SE25G33   29.58F
HETTINGER ARPT CLOUDY    52  35  52 SE20      29.44S
$$

NDZ004>008-012>016-024-026-027-054-231400-
NORTHEAST NORTH DAKOTA

CITY           SKY/WX    TMP DP  RH WIND       PRES   REMARKS
GRAND FORKS    CLOUDY    45  29  53 SE15      29.91S
GRND FRKS AFB  CLOUDY    44  31  59 SE14      29.91S
DEVILS LAKE    CLOUDY    39  30  70 SE20G26   29.78S
$$

NDZ022-023-025-028>030-036>039-047>053-231400-
SOUTHEAST NORTH DAKOTA

CITY           SKY/WX    TMP DP  RH WIND       PRES   REMARKS
FARGO          LGT RAIN  46  34  62 SE20G29   29.92S
JAMESTOWN      CLOUDY    45  42  89 SE29G38   29.74F
$$




USA.gov is the U.S. government's official web portal to all federal, state and local government web resources and services.